Home   Weather   Bimbo   Past weeks

Flag for Central African Republic Past Weather in Bimbo, Central African Republic — Yesterday and Last 2 Weeks

Now
73 °F

Thunderstorms. Passing clouds.


Feels Like: 70 °F
Forecast: 72 / 96 °F
Wind: 3 mph from North

Location: Bangui Airport

Current Time: Sep 29, 2016 at 7:54:42 PM

Latest Report: Sep 29, 2016 at 7:00 PM


Visibility: 4 mi

Pressure: 29.80 "Hg

Humidity: 94%

Dew Point: 72 °F

Location of BimboLocation

Past Weather in Bimbo — Graph

°F

Bimbo Temperature Yesterday

Maximum temperature yesterday: 93 °F (at 1:00 PM)
Minimum temperature yesterday: 73 °F (at 12:00 AM)
Average temperature yesterday: 78 °F

High & Low Weather Summary for the Past Weeks

 TemperatureHumidityPressure
High95 °F (Sep 24, 2:00 PM)100% (Sep 15, 5:00 AM)30.04 "Hg (Sep 15, 5:00 AM)
Low70 °F (Sep 15, 5:00 AM)46% (Sep 18, 2:00 PM)29.74 "Hg (Sep 19, 3:00 PM)
Average78 °F84%29.89 "Hg
* Reported Sep 14 6:00 PM — Sep 29 6:00 PM, Bimbo, Weather by CustomWeather, © 2016

Note: Actual official high and low records may vary slightly from our data, if they occured in-between our weather recording intervals... More about our weather records

Advertising

Bimbo Weather History for the Previous 24 Hours

Scroll right to see more
 ConditionsComfort  
Time TempWeatherWind HumidityBarometerVisibility
6:00 PM
Thu, Sep 29
73 °FThunderstorms. Passing clouds.6 mph94%29.80 "Hg4 mi
3:00 PM75 °FThunderstorms. Partly sunny.9 mph89%29.83 "Hg4 mi
2:00 PM88 °FThunderstorms. Partly sunny.6 mph66%29.80 "HgN/A
1:00 PM88 °FPartly sunny.5 mph70%29.86 "HgN/A
12:00 PM84 °FPartly sunny.5 mph79%29.92 "HgN/A
11:00 AM82 °FScattered clouds.2 mph74%29.95 "HgN/A
10:00 AM77 °FScattered clouds.No wind89%29.95 "Hg4 mi
9:00 AM73 °FThunderstorms. Scattered clouds.No wind100%29.98 "Hg4 mi
8:00 AM73 °FThunderstorms. Scattered clouds.No wind94%29.98 "Hg4 mi
7:00 AM73 °FThunderstorms. Scattered clouds.2 mph94%29.98 "Hg4 mi
6:00 AM73 °FThunderstorms. Scattered clouds.3 mph94%29.95 "Hg5 mi
5:00 AM72 °FThunderstorms. Passing clouds.6 mph100%29.92 "Hg4 mi
4:00 AM72 °FThunderstorms. Passing clouds.3 mph94%29.92 "Hg4 mi
3:00 AM73 °FThunderstorms. Passing clouds.7 mph94%29.89 "Hg4 mi
2:00 AM73 °FThunderstorms. Passing clouds.2 mph94%29.92 "Hg4 mi
1:00 AM73 °FThunderstorms. Passing clouds.6 mph100%29.92 "Hg4 mi
12:00 AM73 °FStrong thunderstorms. Passing clouds.3 mph94%29.95 "Hg2 mi
11:00 PM
Wed, Sep 28
75 °FClear.2 mph89%29.95 "Hg4 mi
10:00 PM75 °FThunderstorms. Passing clouds.5 mph89%29.92 "Hg4 mi
9:00 PM75 °FThunderstorms. Passing clouds.2 mph89%29.92 "Hg5 mi
8:00 PM73 °FThunderstorms. Passing clouds.2 mph100%29.89 "Hg5 mi
7:00 PM73 °FThunderstorms. Passing clouds.3 mph94%29.89 "Hg5 mi
Weather by CustomWeather, © 2016

See weather overviewHow to use our weather pages